Погода в Зизике

Россия / Республика Дагестан     41°46′02″N   48°06′53″E
темп.,
°C
ветер,
м/с
пор.,
м/с
влажн.,
%
обл.,
%
осадки,
мм/ч
давл.,
гПа
погр.,
м
28 сентября, вт
вт2800:00+10юв1289100 0.3 1017255
03:00+9в2298100 1.9 1017259
06:00+8в1296100 0.8 1018194
09:00+8в1195100 1.0 1018218
12:00+9вюв1295100 0.1 1018244
15:00+9в1195100 0.3 1018226
18:00+9всв1199100 0.9 1020128
21:00+9всв1199100 1.8 1021131
29 сентября, ср
ср2900:00+8всв2298100 1.0 1021171
03:00+8ссв2394100 1.6 1022217
06:00+7ссз1188100 0.3 1023130
09:00+7ссз0186100 0.6 1023141
12:00+8св0189100 0.9 1022136
15:00+8св1193100 1.6 1022152
18:00+7св1197100 0.6 1023134
21:00+7св1298100 1.6 1024157
30 сентября, чт
чт3000:00+7ссз1195100 2.4 1023111
03:00+7з1193100 7.8 102374
06:00+7зсз1293100 6.8 1024125
09:00+7ююз1194100 14.9 1026141
12:00+7в1198100 6.4 1026203
15:00+7вюв2299100 10.8 1026218
18:00+6в2299100 3.1 1027153
21:00+6в1199100 4.5 1027140
1 октября, пт
пт100:00+6в1199100 1.8 1027225
03:00+6ююв1197100 3.8 1027161
06:00+6вюв2399100 1.6 1027248
09:00+6ююв2295100 2.2 1028194
12:00+6вюв1293100 0.1 1028390
15:00+6вюв1294100 0.3 1027306
18:00+6в1197100 0.1 1028125
21:00+6юв1296100 0.3 1029139
2 октября, сб
сб200:00+6вюв1197100 0.2 1028115
03:00+5в1196100 0.3 1028120
06:00+5юв0193100 0.0 1028140
09:00+6юв1187100 0.0 1028245
12:00+7вюв2185100 0.0 1028429
15:00+7юв118598 0.0 1027415
18:00+7ююв119196 0.0 102880
21:00+7ююз1190100 0.0 102861